Date String (YYYY-MM-DD hh:mm:ss) UTC,Instrument flags,Ambient pressure (hPa),Sample flow (lpm),Bypass flow (lpm),Sample temperature (°C),Ambient temperature (°C),ASC tube jacket temperature (°C),LED temperature (°C),Box temperature (°C),Sample RH (%),Span deviation,Mass concentration (μg/m³),Mass concentration (μg/m³),Mass concentration (μg/m³)
DateTimeUTC,F1_M11,P_M11,Q1_M11,Q2_M11,T1_M11,T2_M11,T3_M11,T4_M11,T5_M11,U1_M11,ZSPAN_M11,X0_M11,X2_M11,X1_M11
2022-08-08 09:00:00,,0832.7,4.99,0.00,32.5,29.3,00.0,40.1,32.8,34.5,0000.0,0008.76,0005.21,0004.57
2022-08-08 09:01:00,,0832.7,4.99,0.00,32.5,29.3,00.0,40.2,32.8,34.4,0000.0,0008.83,0005.31,0004.65
2022-08-08 09:02:00,,0832.7,5.00,0.00,32.5,29.4,00.0,40.2,32.8,34.4,0000.0,0008.96,0005.38,0004.74
2022-08-08 09:03:00,,0832.7,5.01,0.00,32.5,28.9,00.0,40.3,32.7,34.4,0000.0,0010.22,0005.50,0004.79
2022-08-08 09:04:00,,0832.7,4.99,0.00,32.4,28.2,00.0,40.3,32.6,34.6,0000.0,0010.58,0005.54,0004.84
2022-08-08 09:05:00,,0832.7,5.00,0.00,32.3,27.9,00.0,40.3,32.4,34.9,0000.0,0010.61,0005.60,0004.90
2022-08-08 09:06:00,,0832.6,5.01,0.00,32.1,27.9,00.0,40.2,32.4,35.2,0000.0,0010.65,0005.65,0004.93
2022-08-08 09:07:00,,0832.6,5.00,0.00,32.3,28.0,00.0,40.2,32.5,35.0,0000.0,0010.77,0005.67,0004.96
2022-08-08 09:08:00,,0832.6,4.99,0.00,32.4,28.1,00.0,40.2,32.6,34.7,0000.0,0010.80,0005.68,0004.97
2022-08-08 09:09:00,,0832.7,5.01,0.00,32.5,28.2,00.0,40.2,32.6,34.6,0000.0,0010.77,0005.67,0004.96
2022-08-08 09:10:00,,0832.6,5.00,0.00,32.5,28.4,00.0,40.2,32.6,34.5,0000.0,0010.65,0005.65,0004.96
2022-08-08 09:11:00,,0832.6,5.00,0.00,32.4,28.5,00.0,40.3,32.6,34.5,0000.0,0010.96,0005.64,0004.96
2022-08-08 09:12:00,,0832.7,4.99,0.00,32.4,28.6,00.0,40.3,32.6,34.7,0000.0,0011.34,0005.66,0004.97
2022-08-08 09:13:00,,0832.6,5.00,0.00,32.4,28.7,00.0,40.3,32.6,34.9,0000.0,0011.59,0005.68,0004.99
2022-08-08 09:14:00,,0832.6,5.02,0.00,32.4,28.8,00.0,40.4,32.6,35.1,0000.0,0011.50,0005.65,0005.01
2022-08-08 09:15:00,,0832.6,5.00,0.00,32.5,28.9,00.0,40.4,32.8,34.8,0000.0,0011.00,0005.64,0005.04
2022-08-08 09:16:00,,0832.7,4.99,0.00,32.6,29.0,00.0,40.4,32.8,34.6,0000.0,0011.11,0005.65,0005.03
2022-08-08 09:17:00,,0832.6,5.00,0.00,32.6,29.0,00.0,40.4,32.8,34.6,0000.0,0011.18,0005.66,0005.03
2022-08-08 09:18:00,,0832.6,4.99,0.00,32.6,29.1,00.0,40.4,32.8,34.7,0000.0,0011.24,0005.66,0005.05
2022-08-08 09:19:00,,0832.6,5.00,0.00,32.5,29.1,00.0,40.5,32.8,34.8,0002.2,0011.77,0005.72,0005.07
2022-08-08 09:20:00,,0832.6,5.00,0.00,32.5,29.2,00.0,40.5,32.8,34.8,0002.5,0011.96,0005.77,0005.10
2022-08-08 09:21:00,,0832.6,5.01,0.00,32.4,29.2,00.0,40.5,32.8,34.6,0002.3,0012.04,0005.78,0005.08
2022-08-08 09:22:00,,0832.6,5.00,0.00,32.4,29.3,00.0,40.5,32.8,34.5,0002.3,0012.49,0005.76,0005.06
2022-08-08 09:23:00,,0832.6,5.00,0.00,32.3,29.3,00.0,40.5,32.8,34.5,0001.7,0012.33,0005.73,0005.04
2022-08-08 09:24:00,,0832.6,5.00,0.00,32.3,29.4,00.0,40.5,32.8,34.5,0000.9,0013.51,0005.76,0005.02
2022-08-08 09:25:00,,0832.6,5.01,0.00,32.2,29.4,00.0,40.5,32.8,34.6,0000.0,0013.10,0005.75,0004.98
2022-08-08 09:26:00,,0832.5,4.99,0.00,32.2,28.8,00.0,40.5,32.7,34.5,0000.0,0012.77,0005.72,0004.95
2022-08-08 09:27:00,,0832.5,5.01,0.00,32.1,28.2,00.0,40.4,32.6,34.5,0000.0,0012.81,0005.70,0004.92
2022-08-08 09:28:00,,0832.6,5.00,0.00,32.0,27.9,00.0,40.4,32.4,34.8,0000.0,0012.85,0005.68,0004.87
2022-08-08 09:29:00,,0832.5,4.99,0.00,31.8,27.9,00.0,40.3,32.3,35.1,0000.0,0012.97,0005.67,0004.82
2022-08-08 09:30:00,,0832.6,4.99,0.00,31.9,28.0,00.0,40.3,32.4,34.9,0000.0,0014.34,0005.62,0004.76
2022-08-08 09:31:00,,0832.6,5.01,0.00,32.0,28.1,00.0,40.2,32.5,34.6,0000.0,0015.37,0005.55,0004.69
2022-08-08 09:32:00,,0832.6,4.99,0.00,32.0,28.2,00.0,40.2,32.5,34.5,0000.0,0015.63,0005.54,0004.64
2022-08-08 09:33:00,,0832.6,5.01,0.00,31.9,28.4,00.0,40.2,32.5,34.5,0000.0,0015.47,0005.56,0004.60
2022-08-08 09:34:00,,0832.6,5.00,0.00,31.9,28.5,00.0,40.2,32.5,34.6,0000.0,0015.32,0005.57,0004.56
2022-08-08 09:35:00,,0832.6,5.00,0.00,31.9,28.6,00.0,40.2,32.5,34.7,0000.0,0014.75,0005.54,0004.52
2022-08-08 09:36:00,,0832.6,4.99,0.00,31.8,28.7,00.0,40.2,32.5,34.9,0000.0,0014.90,0005.55,0004.48
2022-08-08 09:37:00,,0832.5,5.01,0.00,31.8,28.8,00.0,40.2,32.5,35.1,0000.0,0015.97,0005.63,0004.48
2022-08-08 09:38:00,,0832.5,5.01,0.00,31.9,28.9,00.0,40.2,32.6,35.0,0000.0,0016.44,0005.69,0004.49
2022-08-08 09:39:00,,0832.5,4.99,0.00,32.1,28.9,00.0,40.2,32.7,34.5,0000.0,0016.65,0005.73,0004.49
2022-08-08 09:40:00,,0832.5,5.00,0.00,32.2,29.0,00.0,40.2,32.7,34.3,0000.0,0016.79,0005.75,0004.49
2022-08-08 09:41:00,,0832.5,5.00,0.00,32.2,29.0,00.0,40.2,32.7,34.2,0000.0,0015.03,0005.74,0004.50
2022-08-08 09:42:00,,0832.4,4.99,0.00,32.2,29.1,00.0,40.2,32.7,34.2,0000.0,0014.32,0005.79,0004.52
2022-08-08 09:43:00,,0832.4,5.00,0.00,32.2,29.1,00.0,40.2,32.7,34.2,0000.0,0014.52,0005.82,0004.54
2022-08-08 09:44:00,,0832.4,5.00,0.00,32.2,29.2,00.0,40.3,32.7,34.6,0000.0,0014.17,0005.86,0004.60
2022-08-08 09:45:00,,0832.4,5.00,0.00,32.1,29.2,00.0,40.3,32.7,34.4,0000.0,0014.45,0005.89,0004.64
2022-08-08 09:46:00,,0832.4,5.00,0.00,32.1,29.2,00.0,40.3,32.7,34.6,0000.0,0013.88,0005.94,0004.69
2022-08-08 09:47:00,,0832.3,4.99,0.00,32.0,29.3,00.0,40.3,32.7,34.6,0000.0,0013.66,0005.98,0004.73
2022-08-08 09:48:00,,0832.3,5.01,0.00,32.0,29.3,00.0,40.3,32.7,34.5,0000.0,0014.06,0006.00,0004.74
2022-08-08 09:49:00,,0832.3,5.00,0.00,32.0,29.3,00.0,40.3,32.7,34.7,0000.0,0014.96,0006.00,0004.75
2022-08-08 09:50:00,,0832.4,4.99,0.00,31.9,29.3,00.0,40.3,32.7,34.8,0001.0,0015.39,0006.00,0004.79
2022-08-08 09:51:00,,0832.4,5.00,0.00,31.9,28.8,00.0,40.3,32.6,34.8,0000.5,0015.37,0006.01,0004.83
2022-08-08 09:52:00,,0832.5,4.99,0.00,31.8,28.1,00.0,40.2,32.5,34.9,0000.5,0016.15,0006.07,0004.86
2022-08-08 09:53:00,,0832.4,5.00,0.00,31.7,27.8,00.0,40.2,32.4,35.1,0001.1,0016.08,0006.13,0004.89
2022-08-08 09:54:00,,0832.4,5.00,0.00,31.7,27.9,00.0,40.1,32.3,35.2,0000.6,0015.56,0006.14,0004.92
2022-08-08 09:55:00,,0832.4,5.00,0.00,31.9,27.9,00.0,40.1,32.4,34.8,0000.0,0016.03,0006.09,0004.91
2022-08-08 09:56:00,,0832.4,4.99,0.00,32.0,28.1,00.0,40.1,32.5,34.4,0000.0,0015.62,0006.06,0004.90
2022-08-08 09:57:00,,0832.3,5.02,0.00,32.1,28.2,00.0,40.0,32.4,34.3,0000.0,0015.83,0005.97,0004.88
2022-08-08 09:58:00,,0832.3,4.99,0.00,32.0,28.3,00.0,40.1,32.4,34.2,0000.0,0015.61,0005.91,0004.86
2022-08-08 09:59:00,,0832.3,5.00,0.00,32.0,28.4,00.0,40.1,32.4,34.1,0000.0,0014.73,0005.82,0004.85
